Location: Bondula
(6.3703°N, 10.6756°W)
Time: 01:35:14
(UTC+00:00)

ARIANE DEB (SPELDA) - Pass Details

Date: 22 October 2019
Orbit: 340 x 32775 km, 3.7° (Epoch: 22 November)

Event Time Altitude Azimuth Distance (km) Brightness Sun altitude
Exits shadow 06:00:01 - 250° (WSW) 1,829 4.5 -7.9°
Reaches altitude 10° 06:00:42 10° 246° (WSW) 1,471 4.0 -7.7°
Maximum altitude 06:03:03 31° 178° (S) 606 2.7 -7.1°
Drops below altitude 10° 06:05:15 10° 109° (ESE) 1,372 6.1 -6.6°
Sets 06:07:46 0° 97° (E) 2,707 8.7 -6.0°
